Flag for U.S.A. Weather past 2 weeks in Osage City, Kansas, U.S.A.

Now
66 °F

Sunny.


Feels Like: 66 °F
Forecast: 62 / 85 °F
Wind: No wind

Location: Forbes Field

Current Time: Jul 4, 2015 at 8:44:28 AM

Latest Report: Jul 4, 2015 at 7:53 AM


Visibility: 7 mi

Pressure: 30.00 "Hg

Humidity: 84%

Dew point: 61 °F

Location of Osage CityLocation

Historic Weather in Osage City — Graph

°F

Osage City temperature yesterday

Maximum temperature yesterday: 81 °F (at 3:53 PM)
Minimum temperature yesterday: 66 °F (at 7:53 AM)
Average temperature yesterday: 72 °F

Past Weeks' High & Low Weather Summary

 TemperatureHumidityPressure
High99 °F (Jun 20, 3:53 PM)93% (Jun 27, 5:53 AM)30.12 "Hg (Jun 27, 5:53 AM)
Low61 °F (Jul 4, 4:53 AM)32% (Jun 28, 4:53 PM)29.72 "Hg (Jun 20, 8:53 PM)
Average79 °F66%29.90 "Hg
* Reported Jun 19 6:53 AM — Jul 4 6:53 AM, Osage City, Weather by CustomWeather, © 2015

Note: Actual official high and low records may vary slightly from our data, if they occured in-between our weather recording intervals... More about our weather records

Advertising

Osage City weather history for previous 24 hours

 ConditionsComfort  
Time TempWeatherWind HumidityBarometerVisibility
6:53 AM
Sat, Jul 4
62 °FFog.No wind90%30.00 "Hg4 mi
5:53 AM61 °FClear.No wind87%29.99 "Hg8 mi
4:53 AM61 °FClear.No wind90%29.99 "Hg8 mi
3:53 AM62 °FClear.No wind90%29.96 "Hg9 mi
2:53 AM64 °FClear.No wind84%29.96 "Hg8 mi
1:53 AM65 °FClear.No wind81%29.96 "Hg9 mi
12:53 AM66 °FClear.No wind84%29.98 "Hg10 mi
11:53 PM
Fri, Jul 3
66 °FMild.No wind81%29.98 "Hg10 mi
9:53 PMN/AN/AN/A29.96 "HgN/A
6:53 PMN/AN/AN/A29.94 "HgN/A
3:53 PM81 °FPassing clouds.7 mph54%29.92 "Hg10 mi
2:53 PM80 °FPassing clouds.7 mph58%29.93 "Hg10 mi
1:53 PM77 °FCloudy.9 mph64%29.95 "Hg10 mi
12:53 PM76 °FOvercast.8 mph67%29.96 "Hg10 mi
12:04 PM76 °FBroken clouds.9 mph69%29.98 "Hg10 mi
11:53 AM76 °FBroken clouds.8 mph69%29.95 "Hg10 mi
11:03 AM74 °FScattered clouds.9 mph76%29.97 "Hg10 mi
10:53 AM73 °FPartly sunny.8 mph76%29.94 "Hg10 mi
9:53 AM69 °FFog.9 mph87%29.94 "Hg5 mi
9:00 AM68 °FLight rain. Fog.10 mph90%29.95 "Hg5 mi
Weather by CustomWeather, © 2015

See weather overviewHow to use our weather pages